Location: Hackberry
(29.5783°N, 96.8797°W)
Time: 13:50:36
(UTC+00:00)

Explorer 11/Cluster Stage 4 - All Passes

Search period start: 02 November 2024 00:00
Search period end: 12 November 2024 00:00
Orbit: 464 x 1206 km, 28.8° (Epoch: 01 November)

Date Brightness Start Highest point End Pass type
(mag) Time Alt. Az. Time Alt. Az. Time Alt. Az.
02 Nov - 13:17:25 10° SSE 13:17:55 10° SSE 13:18:26 10° SE daylight
02 Nov - 15:01:21 10° SW 15:04:57 41° SSE 15:09:08 10° E daylight
02 Nov - 16:48:15 10° W 16:52:30 81° S 16:57:48 10° E daylight
02 Nov - 18:35:31 10° W 18:40:26 71° S 18:46:38 10° ESE daylight
02 Nov - 20:23:11 10° W 20:28:30 38° SSW 20:34:51 10° SE daylight
02 Nov - 22:12:53 10° WSW 22:16:33 15° SSW 22:20:30 10° S daylight
03 Nov - 12:57:24 10° S 12:58:27 11° SSE 12:59:31 10° SE daylight
03 Nov - 14:42:00 10° SW 14:45:31 42° SSE 14:49:32 10° E daylight
03 Nov - 16:28:58 10° W 16:33:03 81° S 16:38:03 10° E daylight
03 Nov - 18:16:13 10° W 18:20:54 68° S 18:26:46 10° ESE daylight
03 Nov - 20:03:54 10° W 20:08:51 34° SSW 20:14:48 10° SE daylight
03 Nov - 21:53:57 10° SW 21:56:52 13° SSW 21:59:58 10° S daylight
04 Nov - 12:37:31 10° S 12:38:59 12° SSE 12:40:27 10° SE daylight
04 Nov - 14:22:38 10° WSW 14:26:07 44° SSE 14:29:56 10° E daylight
04 Nov - 16:09:40 10° W 16:13:36 81° S 16:18:19 10° E daylight
04 Nov - 17:56:55 10° W 18:01:22 64° S 18:06:53 10° ESE daylight
04 Nov - 19:44:37 10° W 19:49:13 31° SSW 19:54:44 10° SE daylight
04 Nov - 21:35:23 10° SW 21:37:11 11° SSW 21:39:04 10° S daylight
05 Nov - 12:17:40 10° S 12:19:31 13° SSE 12:21:20 10° SE visible
05 Nov - 14:03:13 10° WSW 14:06:40 46° SSE 14:10:23 10° E daylight
05 Nov - 15:50:22 10° W 15:54:09 81° S 15:58:37 10° E daylight
05 Nov - 17:37:37 10° W 17:41:50 60° S 17:47:02 10° ESE daylight
05 Nov - 19:25:22 10° WSW 19:29:37 28° SSW 19:34:40 10° SE daylight
06 Nov - 11:57:49 10° SSW 12:00:02 15° SSE 12:02:10 10° ESE visible
06 Nov - 13:43:46 10° WSW 13:47:15 48° SSE 13:50:52 10° E daylight
06 Nov - 15:31:01 10° W 15:34:42 81° S 15:38:56 10° E daylight
06 Nov - 17:18:18 10° W 17:22:19 56° SSW 17:27:12 10° ESE daylight
06 Nov - 19:06:09 10° WSW 19:10:01 24° SSW 19:14:34 10° SSE daylight
07 Nov - 11:37:58 10° SSW 11:40:32 17° SSE 11:42:58 10° ESE visible
07 Nov - 13:24:16 10° WSW 13:27:48 51° SSE 13:31:22 10° E daylight
07 Nov - 15:11:38 10° W 15:15:15 81° S 15:19:17 10° E daylight
07 Nov - 16:58:59 10° W 17:02:49 51° SSW 17:07:23 10° ESE daylight
07 Nov - 18:46:57 10° WSW 18:50:26 21° SSW 18:54:26 10° SSE daylight
08 Nov - 11:18:05 10° SSW 11:21:02 19° SSE 11:23:45 10° ESE visible
08 Nov - 13:04:43 10° WSW 13:08:21 54° SSE 13:11:53 10° E daylight
08 Nov - 14:52:13 10° W 14:55:48 80° S 14:59:40 10° E daylight
08 Nov - 16:39:38 10° W 16:43:18 47° SSW 16:47:34 10° ESE daylight
08 Nov - 18:27:48 10° WSW 18:30:51 18° SSW 18:34:18 10° SSE daylight
09 Nov - 10:58:10 10° SSW 11:01:30 22° SSE 11:04:31 10° ESE visible
09 Nov - 12:45:07 10° WSW 12:48:54 58° SSE 12:52:25 10° E daylight
09 Nov - 14:32:46 10° W 14:36:21 79° S 14:40:05 10° E daylight
09 Nov - 16:20:16 10° W 16:23:48 43° SSW 16:27:48 10° ESE daylight
09 Nov - 18:08:42 10° WSW 18:11:16 16° SSW 18:14:07 10° SSE daylight
10 Nov - 10:38:13 10° SW 10:41:57 25° SSE 10:45:14 10° ESE visible
10 Nov - 12:25:28 10° WSW 12:29:24 61° S 12:32:59 10° E visible
10 Nov - 14:13:14 10° W 14:16:52 78° S 14:20:31 10° E daylight
10 Nov - 16:00:52 10° W 16:04:17 39° SSW 16:08:02 10° SE daylight
10 Nov - 17:49:42 10° SW 17:51:41 13° SSW 17:53:50 10° S daylight
11 Nov - 10:18:15 10° SW 10:22:23 28° SSE 10:25:56 10° E visible
11 Nov - 12:05:45 10° WSW 12:09:53 65° S 12:13:32 10° E visible
11 Nov - 13:53:40 10° W 13:57:23 77° S 14:00:59 10° E daylight
11 Nov - 15:41:26 10° W 15:44:46 36° SSW 15:48:19 10° SE daylight
11 Nov - 17:30:54 10° SW 17:32:07 11° SSW 17:33:21 10° S daylight
